Weather in Yurovichi

Belarus     51°56′46″N   29°31′32″E
temp.,
°C
wind,
m/s
gust,
m/s
humid.,
%
clouds,
%
prec.,
mm/h
press.,
hPa
HPBL,
m
14 may, fri
fri1400:00+11se6137779 0.0 1008524
03:00+11se51282100 0.0 1008549
06:00+10se5118787 0.0 1008437
09:00+14sse7107725 0.0 1008789
12:00+18sse79566 0.0 10071481
15:00+20sse675198 0.0 10062202
18:00+18s476785 0.2 1006356
21:00+13ssw348237 0.2 100643
15 may, sat
sat1500:00+11sse338625 0.0 100638
03:00+11sse3688100 0.0 1006117
06:00+12ssw3595100 0.3 1006180
09:00+12sw489698 1.9 1008470
12:00+12ssw489599 1.3 1009382
15:00+17ssw576952 1.3 10081084
18:00+18sw357023 0.6 10081038
21:00+13sw358831 1.0 100978
16 may, sun
sun1600:00+11ssw37975 0.0 1010136
03:00+10sw369713 0.0 1011136
06:00+10ssw259685 0.0 1012106
09:00+14ssw348218 0.0 1012433
12:00+19s456218 0.0 10121375
15:00+21s4553100 0.0 10111846
18:00+21se3463100 0.0 1010477
21:00+17ese4972100 0.0 1009210
17 may, mon
mon1700:00+13se3691100 0.8 101085
03:00+13se31088100 0.8 1009242
06:00+13ese3989100 0.3 1008229
09:00+14se3992100 1.1 1008351
12:00+15s3693100 4.4 1008326
15:00+15nnw2293100 5.6 1007127
18:00+16e2289100 0.1 1006255
21:00+13se119598 0.1 100611
18 may, tue
tue1800:00+12w2396100 0.0 100760
03:00+11w369524 0.0 1007109
06:00+10w37965 0.0 1008160
09:00+14wnw3579100 0.0 1009385
12:00+17wnw3468100 0.0 1009995
15:00+18wnw226444 0.3 10091155
18:00+18wsw11665 1.1 1009885
21:00+13nw118412 2.4 100910